星链-31456 (STARLINK-31456 )

导读 | 豆包AI

STARLINK-31456是美国太空探索技术公司(SpaceX)开发的第二代星链(Starlink)系列卫星,于2024年2月23日发射,属于星链星座组网任务的一部分。该卫星运行在近地轨道,配备增强型相控阵天线与激光星间链路,单星容量超100Gbps,为全球用户提供高速低延迟互联网服务,助力星链实现全球覆盖,支撑其第二代星座规模化部署。

基本信息
目录编号:
59007
目录名称:
STARLINK-31456
国际标识:
2024-036K
轨道中心:
EARTH
卫星名称:
星链-31456
卫星全名:
星链-31456 (STARLINK-31456 )
卫星状态:
在轨 (已飞行751 天)
发射日期:
2024-02-23 UTC
国别 :
美国 (US)
星等 :
--
轨道信息
数据来源 国际轨道数据 AOE轨道数据
星历时间 2026-03-15T13:27:13+0800
18小时前
查看轨道信息
2026-03-14T12:00:00+0800
1天前
查看轨道信息
半长轴 6853.396km 6853.328km
偏心率 0.0001265 0.0000988
轨道倾角 53.162° 53.160°
近地点辐角 82.353° 91.385°
升交点赤经 52.222° 57.149°
平近点角 277.761° 183.178°
近地点 474.392km 474.513km
远地点 476.126km 475.869km
周期 94.106分钟 94.105分钟
每日圈数 15.301854 15.302082
详细信息
固有亮度:
5
最大亮度:
0.3
卫星平台:
Starlink v2.0 mini
覆盖范围:
全球
运营商:
太空探索技术公司
运营商所在国:
美国
制造商(研发单位):
太空探索技术公司
制造商所在国:
美国
使用方式:
暂无
卫星简介
星链(Starlink)计划是由太空探索技术公司(SpaceX)提出的一个巨型低轨卫星互联网星座项目,计划在2019年至2024年间在太空搭建由约1.2万颗卫星组成的“星链”网络,其中1584颗将部署在地球上空550千米处的近地轨道,并从2020年开始工作。该卫星仍在工作。
2D轨道图
3D轨道图
轨道高度分析图
轨道倾角分析图
轨道综合分析图
查看轨道综合分析图